Wind_Speed
12 12 12 12 12 12 12 12 12 12 11 11 11 11 11 11 11 11 11 10 10 10 11 10 10 10 10 10 10 9 9 9 9 8 8 7 7 7 7 6 6 6 6
13 13 13 13 13 13 13 13 13 12 12 12 12 12 12 11 12 11 12 11 11 12 12 11 10 10 10 11 11 10 10 10 10 10 9 9 8 8 8 8 7 7 7
13 14 14 14 14 14 14 14 14 13 13 13 13 12 11 11 11 11 12 12 12 12 12 12 11 11 11 11 12 12 12 11 11 11 11 10 10 10 9 9 9 8 8
15 15 15 15 14 14 14 14 14 14 14 14 13 12 12 11 12 12 12 12 12 12 12 12 12 12 12 12 13 13 12 12 12 12 12 12 12 11 11 11 10 10 10
16 16 16 16 15 15 15 15 15 15 15 14 14 13 13 13 13 13 13 13 13 13 13 13 12 12 13 13 13 14 13 13 13 13 13 13 13 13 13 12 12 12 11
17 17 17 17 17 17 17 17 16 15 15 15 15 15 14 14 14 14 14 14 14 14 14 14 14 14 14 14 14 14 14 14 14 15 14 14 14 15 14 14 13 13 13
19 18 18 18 18 18 18 18 18 17 17 16 16 16 16 15 15 15 15 15 15 15 15 15 15 15 15 15 15 15 15 15 15 15 16 16 16 16 15 15 15 14 14
20 20 20 20 20 19 19 19 19 19 18 18 17 17 17 17 16 16 16 16 16 16 16 16 16 16 16 16 16 16 16 16 17 16 17 17 17 17 17 16 17 16 16
21 21 21 21 21 21 20 21 20 20 19 19 19 19 19 18 18 18 18 18 18 18 17 18 18 17 18 18 18 18 18 17 18 18 18 18 19 19 19 18 18 18 18
22 23 23 23 22 22 22 22 22 22 21 21 20 20 20 20 20 20 19 19 19 19 19 19 19 19 19 19 19 19 19 19 19 19 19 19 20 20 20 20 20 20 20
24 24 24 24 24 24 24 24 23 23 23 22 22 22 21 21 22 21 21 21 20 20 21 21 20 20 20 20 21 20 20 20 20 20 20 21 21 22 22 22 22 21 21
26 26 26 25 25 26 26 25 25 24 24 24 24 23 23 23 23 23 23 23 23 23 23 22 23 23 23 23 23 22 22 22 22 22 22 22 22 23 24 24 25 24 24
28 28 28 27 27 27 27 27 27 27 26 26 26 25 25 24 24 25 25 25 25 25 24 24 25 25 25 25 25 25 25 25 25 25 24 25 25 25 25 26 27 27 27
29 29 29 29 29 29 29 30 30 29 29 28 28 28 27 27 27 27 27 26 26 26 26 26 26 26 26 27 27 27 27 27 28 27 27 27 27 27 27 28 29 29 29
30 31 31 31 31 31 31 31 31 31 32 31 30 30 30 29 29 29 29 28 28 28 28 28 28 28 28 28 28 29 30 30 30 30 29 30 30 30 29 30 30 31 31
33 33 33 33 33 32 32 32 33 33 33 33 33 33 32 32 31 31 31 31 31 31 30 30 30 30 31 31 31 32 32 32 33 33 33 32 32 32 32 32 32 33 33
34 35 35 35 35 35 34 34 34 34 35 35 35 35 35 34 34 33 33 33 33 33 33 33 33 33 33 33 33 34 34 34 35 35 35 35 34 35 35 35 34 35 35
36 36 36 37 37 37 36 36 36 36 36 37 37 37 37 36 36 36 35 35 35 34 35 35 35 36 36 35 36 36 36 37 37 38 38 37 36 36 37 37 37 37 37
37 37 38 38 38 38 38 38 38 37 38 38 38 38 38 38 38 38 38 37 37 37 37 38 37 37 38 38 38 38 38 39 39 39 40 40 39 39 39 39 39 40 40
38 38 39 39 40 40 40 40 39 39 39 39 39 39 39 40 40 40 39 40 39 39 39 40 39 39 40 40 40 40 40 41 41 41 42 42 42 42 42 42 42 42 42
39 40 40 40 41 41 41 40 41 41 41 41 41 41 41 41 41 42 42 42 41 41 41 41 42 41 41 41 42 43 43 43 43 43 43 43 43 43 44 44 44 44 44
41 40 40 41 41 42 42 42 43 42 42 42 42 42 43 43 43 43 44 43 43 44 44 43 43 43 44 44 44 44 44 44 44 45 45 45 46 45 45 46 46 47 47
41 41 41 42 43 43 43 44 43 43 43 43 43 43 44 44 44 44 44 45 45 45 45 45 45 45 45 45 46 46 46 46 46 46 47 47 48 48 48 48 48 48 49
41 42 42 43 43 44 44 44 44 44 44 44 44 44 45 45 45 45 46 46 46 47 47 47 47 48 47 46 47 48 49 49 49 48 49 49 49 50 50 50 50 50 50
42 42 42 43 43 44 44 44 44 44 44 45 45 45 45 46 46 46 47 47 47 48 48 49 49 49 49 50 49 50 50 51 51 51 51 51 51 51 51 51 51 52 52
42 42 42 43 43 44 44 44 44 44 44 45 45 45 45 46 46 47 47 47 48 48 49 49 49 49 50 51 51 51 51 52 52 53 53 53 53 53 53 53 54 54 54
Wind_Direction
263 262 262 260 257 259 261 263 263 262 266 266 264 265 267 269 270 265 261 260 262 262 261 260 261 259 257 260 259 260 261 259 259 258 256 256 258 258 259 262 259 256 256
262 262 261 260 260 260 261 262 262 263 263 266 266 266 266 268 268 265 261 260 260 260 261 260 261 261 259 259 259 258 259 261 261 258 256 256 258 260 261 261 263 262 264
263 264 264 263 262 260 260 260 261 263 264 264 264 265 265 266 265 265 264 261 260 260 260 261 263 262 261 260 259 257 257 258 258 257 256 256 258 259 260 260 261 263 264
265 265 264 264 263 261 261 260 260 263 264 263 262 263 263 263 264 264 263 262 262 261 260 261 262 262 262 262 260 259 259 258 257 256 257 257 257 258 259 261 262 262 264
265 266 265 264 262 261 261 261 261 262 263 261 259 260 261 262 263 263 262 263 262 262 262 261 261 261 262 262 260 261 261 260 259 258 258 258 257 258 260 262 263 264 266
265 266 265 264 262 262 261 261 262 263 263 261 259 259 260 261 262 262 262 262 261 261 262 262 262 261 261 261 262 263 262 262 260 259 259 259 259 261 261 261 263 265 267
266 266 264 262 261 261 260 261 262 263 262 262 261 259 259 260 262 261 261 260 259 260 261 262 263 262 262 262 261 263 264 263 261 261 259 259 259 261 262 261 261 265 268
266 265 263 261 260 259 259 260 261 264 265 263 262 260 259 258 260 262 260 259 258 259 261 262 262 263 263 263 262 263 265 264 261 260 260 259 260 260 262 262 262 263 265
265 264 263 262 259 258 260 260 260 261 262 263 262 261 260 259 259 260 260 259 259 260 261 263 263 262 263 263 262 263 265 265 263 262 261 259 260 260 261 261 262 262 264
266 265 264 262 260 259 260 260 260 260 261 263 262 261 260 260 260 260 260 259 259 260 261 262 263 263 263 263 263 263 263 265 264 263 263 261 260 259 260 261 262 263 264
267 265 264 262 261 261 260 260 261 260 261 262 262 262 261 260 260 260 260 260 261 261 262 262 263 263 263 264 264 263 263 265 265 265 264 264 262 260 260 262 263 264 264
266 264 263 262 261 261 260 259 260 260 260 261 261 260 261 261 261 261 261 262 262 262 263 263 263 263 264 264 265 264 264 265 266 265 265 265 265 264 263 262 263 263 263
267 265 263 262 262 261 260 260 260 260 261 260 259 259 260 260 262 262 262 263 264 264 264 264 264 264 264 264 265 266 265 265 266 266 265 264 264 265 264 263 263 263 263
267 266 265 264 263 263 262 261 261 261 260 260 259 258 259 260 262 262 262 263 264 264 265 265 265 265 265 265 266 266 265 265 266 266 265 265 265 265 265 265 264 264 263
267 266 265 264 264 263 262 261 261 261 260 260 259 258 258 259 261 262 262 263 264 265 266 266 266 266 266 267 267 267 266 266 266 266 267 266 265 265 266 266 265 264 264
265 265 264 264 264 263 263 262 261 261 261 260 260 260 260 260 261 262 262 263 264 265 266 267 267 267 268 267 267 268 268 267 267 267 268 268 266 265 266 266 266 265 264
264 264 264 264 263 264 264 263 262 261 260 260 261 261 261 261 262 262 263 264 265 266 266 267 268 268 268 268 268 268 269 268 268 268 268 268 267 266 266 267 267 266 264
265 264 264 264 264 264 264 264 263 262 261 261 261 261 261 261 261 262 262 264 265 265 267 268 268 269 269 269 268 269 269 269 268 268 268 268 267 267 267 267 267 266 265
265 265 264 265 265 265 265 264 263 262 262 262 261 261 261 261 261 261 262 264 264 266 268 268 268 269 270 270 270 269 269 269 269 268 268 268 267 267 267 267 266 266 265
266 266 265 265 265 265 265 264 264 263 262 261 261 261 261 261 261 262 262 264 265 266 268 268 269 269 270 270 270 270 270 270 269 268 268 267 267 267 267 267 266 266 265
267 267 267 266 266 265 265 264 264 263 262 261 262 261 261 262 262 262 263 264 265 266 268 269 270 271 271 270 270 270 269 270 270 269 268 267 267 268 267 266 266 265 265
268 267 267 267 266 266 265 265 264 264 263 263 262 262 261 262 263 263 263 264 265 267 268 269 271 271 271 271 271 271 270 269 269 269 269 268 267 267 267 267 266 266 266
269 268 268 267 266 266 265 265 265 264 264 263 263 262 262 263 263 264 264 265 266 267 268 269 269 271 271 273 273 272 271 270 269 269 269 269 267 266 266 267 267 267 267
270 268 268 268 267 266 266 266 265 265 264 263 263 263 263 263 264 265 265 266 267 268 268 269 270 271 272 273 273 273 272 272 271 269 269 269 268 267 267 267 267 267 268
269 269 268 268 268 267 267 266 266 265 264 264 264 264 264 264 264 265 266 267 268 268 269 270 271 272 273 273 274 275 274 274 273 271 269 269 269 269 268 267 267 267 268
270 269 269 269 269 268 268 267 266 265 264 264 264 264 264 264 265 266 266 268 268 269 270 271 272 273 273 274 274 275 275 275 274 273 271 269 268 268 268 268 268 268 269
Height
5820 5820 5821 5821 5822 5822 5823 5823 5823 5823 5824 5824 5824 5825 5825 5825 5825 5826 5827 5828 5828 5829 5830 5831 5832 5833 5834 5835 5835 5836 5837 5838 5838 5839 5840 5840 5841 5841 5842 5842 5843 5843 5844
5817 5818 5818 5819 5819 5820 5820 5820 5821 5821 5821 5822 5822 5822 5822 5822 5823 5823 5824 5825 5826 5827 5828 5829 5830 5831 5832 5833 5833 5834 5835 5836 5836 5837 5838 5839 5839 5840 5840 5841 5842 5842 5842
5815 5815 5816 5816 5817 5817 5817 5818 5818 5818 5819 5819 5819 5819 5820 5820 5820 5821 5822 5822 5823 5825 5826 5827 5828 5829 5830 5831 5831 5832 5833 5834 5835 5835 5836 5837 5838 5838 5839 5840 5840 5841 5841
5812 5813 5813 5813 5814 5814 5815 5815 5815 5816 5816 5816 5816 5816 5817 5817 5818 5819 5819 5820 5821 5822 5823 5824 5825 5826 5827 5828 5829 5830 5831 5831 5832 5833 5834 5835 5836 5836 5837 5838 5838 5839 5839
5809 5810 5810 5811 5811 5811 5812 5812 5812 5813 5813 5813 5813 5814 5814 5815 5815 5816 5817 5817 5818 5819 5821 5822 5823 5824 5825 5825 5826 5827 5828 5829 5830 5831 5832 5833 5833 5834 5835 5835 5836 5837 5837
5806 5806 5807 5807 5808 5808 5809 5809 5809 5809 5810 5810 5810 5811 5811 5812 5812 5813 5814 5815 5815 5817 5818 5819 5820 5821 5822 5823 5823 5824 5825 5826 5827 5828 5829 5830 5831 5831 5832 5833 5834 5834 5835
5802 5803 5803 5803 5804 5805 5805 5805 5805 5806 5806 5807 5807 5808 5808 5809 5809 5810 5811 5811 5812 5813 5814 5816 5817 5818 5818 5819 5820 5821 5822 5823 5824 5825 5826 5827 5828 5828 5829 5830 5831 5831 5832
5798 5798 5799 5799 5800 5800 5801 5801 5802 5802 5803 5803 5803 5804 5805 5805 5806 5806 5807 5808 5809 5810 5811 5812 5813 5814 5815 5816 5817 5818 5819 5819 5820 5821 5822 5823 5824 5825 5826 5826 5827 5828 5829
5793 5794 5794 5795 5796 5796 5797 5797 5798 5798 5798 5799 5799 5800 5801 5801 5802 5803 5803 5804 5805 5806 5807 5808 5809 5810 5811 5812 5813 5814 5815 5816 5816 5817 5818 5819 5820 5821 5822 5823 5824 5824 5825
5789 5789 5790 5790 5791 5791 5792 5793 5793 5794 5794 5794 5795 5796 5796 5797 5798 5798 5799 5800 5801 5802 5803 5804 5805 5806 5807 5808 5809 5810 5811 5812 5812 5813 5814 5815 5816 5817 5818 5819 5820 5820 5821
5784 5784 5784 5785 5785 5786 5787 5787 5788 5789 5789 5789 5790 5791 5792 5792 5793 5794 5795 5795 5796 5797 5798 5799 5800 5801 5803 5804 5805 5805 5806 5807 5808 5809 5810 5811 5811 5812 5813 5814 5815 5816 5817
5778 5778 5779 5779 5780 5780 5781 5782 5783 5783 5784 5784 5785 5786 5787 5787 5788 5789 5790 5790 5791 5792 5793 5794 5795 5796 5797 5799 5800 5801 5801 5803 5803 5804 5805 5806 5807 5807 5808 5809 5810 5811 5812
5772 5772 5773 5773 5774 5774 5775 5776 5776 5777 5778 5778 5779 5780 5781 5782 5783 5783 5784 5785 5786 5787 5787 5788 5790 5791 5792 5793 5794 5795 5796 5797 5798 5799 5800 5800 5801 5802 5803 5804 5804 5805 5806
5766 5766 5766 5767 5767 5767 5768 5769 5770 5770 5771 5772 5773 5774 5775 5776 5776 5777 5778 5779 5780 5781 5781 5782 5783 5784 5785 5786 5788 5789 5790 5791 5792 5793 5793 5794 5795 5796 5797 5797 5798 5799 5800
5759 5759 5759 5759 5760 5760 5761 5762 5762 5763 5764 5765 5766 5767 5768 5769 5770 5771 5771 5772 5773 5774 5775 5776 5777 5778 5779 5780 5781 5782 5783 5784 5785 5786 5786 5787 5788 5789 5790 5791 5791 5792 5793
5751 5751 5751 5752 5752 5753 5753 5754 5755 5755 5756 5757 5758 5759 5760 5761 5762 5763 5764 5765 5766 5767 5768 5768 5769 5770 5771 5772 5773 5774 5775 5776 5777 5778 5779 5780 5780 5781 5782 5783 5783 5784 5785
5743 5743 5744 5744 5744 5745 5745 5746 5746 5747 5748 5749 5750 5751 5752 5753 5755 5756 5757 5758 5758 5759 5760 5761 5761 5762 5763 5764 5765 5766 5767 5768 5769 5769 5770 5771 5772 5773 5774 5774 5775 5776 5777
5734 5735 5735 5735 5736 5736 5737 5737 5738 5738 5739 5740 5741 5742 5743 5745 5746 5747 5748 5749 5750 5750 5751 5752 5753 5754 5754 5755 5756 5757 5758 5759 5759 5760 5761 5762 5763 5764 5765 5765 5766 5767 5768
5725 5725 5726 5726 5727 5727 5727 5728 5728 5729 5730 5731 5732 5733 5734 5735 5736 5738 5739 5740 5740 5741 5742 5742 5743 5744 5745 5746 5747 5747 5748 5749 5750 5750 5751 5752 5753 5754 5755 5755 5756 5757 5758
5715 5715 5716 5717 5717 5717 5718 5718 5719 5719 5720 5721 5722 5723 5724 5725 5726 5727 5728 5729 5730 5731 5732 5733 5733 5734 5735 5736 5736 5737 5738 5738 5739 5739 5740 5741 5742 5743 5744 5745 5746 5747 5748
5705 5706 5706 5706 5707 5707 5708 5708 5708 5709 5710 5711 5711 5712 5713 5714 5715 5717 5718 5719 5720 5721 5721 5722 5723 5723 5724 5725 5726 5726 5727 5727 5728 5728 5729 5730 5730 5731 5732 5733 5734 5735 5736
5695 5695 5695 5695 5696 5696 5697 5697 5698 5698 5699 5700 5701 5701 5702 5703 5704 5705 5706 5708 5709 5709 5710 5711 5711 5712 5712 5713 5714 5714 5715 5717 5717 5717 5717 5718 5718 5719 5720 5721 5721 5722 5723
5684 5684 5684 5684 5684 5685 5685 5685 5686 5687 5688 5689 5689 5690 5691 5691 5693 5694 5695 5696 5697 5698 5698 5699 5700 5700 5700 5701 5701 5702 5703 5704 5705 5706 5705 5705 5706 5706 5707 5708 5708 5709 5710
5673 5673 5673 5673 5673 5673 5673 5674 5674 5675 5676 5677 5677 5678 5679 5680 5681 5682 5683 5683 5684 5685 5686 5687 5687 5687 5688 5688 5688 5688 5689 5689 5691 5693 5693 5693 5693 5693 5693 5694 5694 5695 5696
5662 5661 5661 5661 5661 5661 5662 5662 5662 5663 5664 5664 5665 5666 5667 5668 5668 5669 5670 5671 5672 5672 5673 5673 5674 5674 5674 5675 5674 5674 5674 5674 5675 5677 5679 5679 5679 5679 5679 5679 5679 5680 5681
5650 5650 5650 5650 5650 5650 5650 5650 5650 5651 5651 5652 5653 5653 5654 5655 5656 5657 5658 5658 5659 5659 5660 5660 5660 5661 5661 5661 5660 5660 5660 5660 5660 5661 5663 5664 5664 5665 5664 5664 5664 5665 5666